Flag for U.S.A. Weather past 2 weeks in Peoria, Illinois, U.S.A.

Now
55 °F

Fog.


Feels Like: 55 °F
Forecast: 54 / 72 °F
Wind: No wind

Location: Greater Peoria Regional Airport

Current Time: Oct 25, 2014 at 7:44:17 AM

Latest Report: Oct 25, 2014 at 6:54 AM


Visibility: 0 mi

Pressure: 29.98 "Hg

Humidity: 90%

Dew point: 52 °F

Location of PeoriaLocation

Historic Weather in Peoria — Graph

°F

Peoria temperature yesterday

Maximum temperature yesterday: 65 °F (at 3:54 PM)
Minimum temperature yesterday: 46 °F (at 6:54 AM)
Average temperature yesterday: 57 °F

Past Weeks' High & Low Weather Summary

 TemperatureHumidityPressure
High70 °F (Oct 13, 3:01 PM)93% (Oct 12, 11:54 PM)30.37 "Hg (Oct 12, 11:54 PM)
Low38 °F (Oct 22, 7:54 AM)35% (Oct 11, 3:54 PM)29.43 "Hg (Oct 14, 10:54 AM)
Average55 °F73%29.97 "Hg
* Reported Oct 10 6:54 AM — Oct 25 6:54 AM, Peoria, Weather by CustomWeather, © 2014

Note: Actual official high and low records may vary slightly from our data, if they occured in-between our weather recording intervals... More about our weather records

Advertising

Peoria weather history for previous 24 hours

 ConditionsComfort  
Time TempWeatherWind HumidityBarometerVisibility
6:54 AM
Oct 25
55 °FFog.No wind90%29.98 "Hg0 mi
5:54 AM55 °FFog.3 mph87%29.97 "Hg6 mi
4:54 AM53 °FPassing clouds.No wind86%29.96 "Hg8 mi
3:54 AM52 °FFog.No wind89%29.95 "Hg6 mi
2:54 AM55 °FClear.5 mph80%29.93 "Hg9 mi
1:54 AM58 °FMostly cloudy.5 mph78%29.95 "Hg9 mi
12:54 AM57 °FPassing clouds.No wind78%29.95 "Hg10 mi
11:54 PM
Oct 24
59 °FClear.7 mph72%29.93 "Hg10 mi
10:54 PM62 °FOvercast.8 mph67%29.95 "Hg10 mi
9:54 PM63 °FMostly cloudy.9 mph65%29.97 "Hg10 mi
8:54 PM63 °FOvercast.7 mph63%29.97 "Hg10 mi
7:54 PM63 °FOvercast.6 mph68%29.96 "Hg10 mi
6:54 PM62 °FPassing clouds.7 mph67%29.96 "Hg10 mi
5:54 PM63 °FSunny.5 mph65%29.97 "Hg10 mi
4:54 PM65 °FSunny.9 mph61%29.97 "Hg10 mi
3:54 PM65 °FSunny.6 mph66%29.98 "Hg10 mi
2:54 PM64 °FSunny.9 mph70%30.01 "Hg10 mi
1:54 PM62 °FSunny.9 mph75%30.03 "Hg7 mi
12:54 PM63 °FSunny.6 mph70%30.06 "Hg6 mi
11:54 AM61 °FSunny.7 mph75%30.08 "Hg4 mi
10:54 AM56 °FFog.7 mph87%30.09 "Hg3 mi
10:04 AM54 °FFog.No wind90%30.09 "Hg0 mi
9:54 AM53 °FFog.3 mph93%30.09 "Hg0 mi
8:54 AM52 °FFog.No wind93%30.10 "Hg0 mi
8:02 AM50 °FFog.No wind86%30.08 "Hg5 mi
7:54 AM49 °FFog.3 mph86%30.08 "Hg5 mi
Weather by CustomWeather, © 2014

See weather overviewHow to use our weather pages